SATCOM 3 DEB, 31138

Orbit data source: Space-Track

SATCOM 3 DEB, 31138 is space debris in HEO originally from a launch on Fri, 07 Dec 1979 UTC launched from the Air Force Eastern Test Range (AFETR). Debris objects in space refer to the collection of defunct objects orbiting the Earth. Examples of debris include non-operational satellites, rocket bodies, and fragments generated from explosions, collisions, or faulty payload assembly.

Loading next visibility...
Identifier
31138, 1979-101H
Orbit
HEO
Country
Flag of USUS
Related business
Manufacturer
Unknown
Mission
Spacecraft
Bus & Motor
Unknown
Mass
Unknown
Launch date (UTC)
1979-12-07 (47 years ago)
Launch vehicle
Unknown
Launch site
Air Force Eastern Test Range (AFETR)
Object type
Payload
Rocket body
Debris
Shape & HBR
Unknown shape, 1.1 m
Radar Cross Section
Medium (>0.1 m² and <1 m²)

Expand to show TLE details & history
Last TLE update: 1 week ago

TLE from 1 week ago
0 SATCOM 3 DEB
1 31138U 79101H   26161.61398301 -.00000089  00000-0  00000-0 0  9999
2 31138   9.2280  51.2473 4886995 170.9986 356.8389  1.83046457130521
Epoch: 2026-06-10T14:44Z
TLE epoch observation values (Epoch: 2026-06-10T14:44:08.132Z)
Latitude
3.1399°
Longitude
91.54037°
Altitude
8,130.287 km
Speed
6.39 km/s
True Right ascension
14h 06m 10s
True Declination
3° 07' 50"
Sunlit
Object was in daylight at epoch
Visualization orbit readout
Latitude
Unknown
Longitude
Unknown
Altitude
Unknown
Speed
Unknown
Apparent Right ascension
Unknown
Apparent Declination
Unknown
Sunlit
N/A
Visualization observer readout
Local Sidereal Time
17:13:15
Azimuth
Unknown
Elevation
Unknown
Doppler factor
Unknown
Orbital elements
Apogee altitude
35,649.633 km
Perigee altitude
8,056.489 km
Semi-major axis
28,231.198 km
Eccentricity
0.4887
Inclination
9.228°
RAAN
51.2473°
Arg. of periapsis
170.9986°
True anomaly
349.48944°
Mean anomaly
356.8389°
Eccentric anomaly
353.82893°
Mean motion
0.45756 °/min
Orbital period
786.78 mins
BSTAR
0
Loading maneuver chart data...
Computing Atmospheric mass density...
Loading historical data...
Loading historical data...
Loading historical data...
Loading historical data...
Loading historical data...
Loading historical data...
Loading historical data...

Documentation

Showing up to 5 results
|